Home   Weather   Paris Villa   Past weeks
Flag for USA

Past Weather in Paris Villa, Delaware, USA — Yesterday and Last 2 Weeks

Now
34 °F

Passing clouds.


Feels Like: 29 °F
Forecast: 42 / 32 °F
Wind: 6 mph from West

Location: Dover Air Force Base

Current Time: Dec 11, 2019 at 9:06:45 am

Latest Report: Dec 11, 2019 at 8:16 am


Visibility: 10 mi

Pressure: 30.33 "Hg

Humidity: 93%

Dew Point: 32 °F

Location of Paris VillaLocation

Past Weather in Paris Villa — Graph

°F

Paris Villa Temperature Yesterday

Maximum temperature yesterday: 64 °F (at 1:04 pm)
Minimum temperature yesterday: 41 °F (at 11:56 pm)
Average temperature yesterday: 58 °F

High & Low Weather Summary for the Past Weeks

 TemperatureHumidityPressure
High66 °F (Nov 26, 12:56 pm)100% (Dec 1, 11:06 am)30.55 "Hg (Dec 1, 11:06 am)
Low27 °F (Dec 7, 11:56 pm)35% (Dec 3, 12:56 pm)29.42 "Hg (Dec 1, 5:56 pm)
Average44 °F75%29.94 "Hg
* Reported Nov 26 7:56 am — Dec 11 7:56 am, Paris Villa. Weather by CustomWeather, © 2019

Note: Actual official high and low records may vary slightly from our data, if they occured in-between our weather recording intervals... More about our weather records

Paris Villa Weather History for the Previous 24 Hours

Scroll right to see more
 ConditionsComfort  
Time TempWeatherWind HumidityBarometerVisibility
7:56 am
Wed, Dec 11
34 °FPartly sunny.7 mph95%30.32 "Hg10 mi
7:34 am34 °FLight snow. Passing clouds.6 mph93%30.31 "Hg10 mi
7:16 am34 °FLight snow. Scattered clouds.7 mph93%30.32 "Hg8 mi
7:06 am34 °FLight snow. Passing clouds.7 mph93%30.31 "Hg10 mi
6:56 am33 °FLight snow. Passing clouds.8 mph95%30.30 "Hg7 mi
6:14 am34 °FMostly cloudy.10 mph93%30.28 "Hg10 mi
5:56 am33 °FLight snow. Fog.6 mph95%30.28 "Hg5 mi
5:30 am32 °FLight snow. Ice fog.8 mph100%30.23 "Hg2 mi
5:12 am32 °FLight snow. Ice fog.5 mph100%30.24 "Hg1 mi
5:04 am32 °FLight snow. Ice fog.5 mph100%30.23 "Hg2 mi
4:56 am33 °FLight snow. Fog.5 mph94%30.21 "Hg3 mi
4:06 am34 °FLight snow. Fog.7 mph93%30.22 "Hg5 mi
3:42 am34 °FLight snow. Low clouds.9 mph93%30.23 "Hg7 mi
3:04 am34 °FSleet. Passing clouds.13 mph93%30.22 "Hg5 mi
2:56 am35 °FLight rain. Partly cloudy.16 mph89%30.22 "Hg7 mi
2:35 am36 °FLight rain. Passing clouds.12 mph93%30.20 "Hg7 mi
1:56 am37 °FLight rain. Passing clouds.15 mph85%30.19 "Hg10 mi
1:26 am37 °FLight rain. Partly cloudy.16 mph87%30.16 "Hg10 mi
1:06 am39 °FLight rain. Overcast.15 mph81%30.15 "Hg10 mi
12:37 am41 °FPassing clouds.14 mph87%30.15 "Hg10 mi
12:21 am41 °FPartly cloudy.13 mph87%30.13 "Hg10 mi
11:56 pm
Tue, Dec 10
41 °FLight rain. Mostly cloudy.15 mph88%30.14 "Hg10 mi
10:16 pm45 °FPartly cloudy.16 mph87%30.11 "Hg10 mi
9:56 pm46 °FLight rain. Passing clouds.13 mph87%30.09 "Hg10 mi
9:36 pm46 °FLight rain. Partly cloudy.14 mph87%30.09 "Hg10 mi
9:06 pm48 °FLight rain. Passing clouds.10 mph87%30.08 "Hg10 mi
8:56 pm49 °FLight rain. Partly cloudy.13 mph87%30.07 "Hg10 mi
7:56 pm52 °FLight rain. Partly cloudy.12 mph90%30.06 "Hg10 mi
6:56 pm54 °FRain. Overcast.13 mph85%30.01 "Hg7 mi
6:21 pm55 °FLight rain. Overcast.9 mph82%29.98 "Hg10 mi
5:56 pm56 °FOvercast.12 mph80%29.96 "Hg10 mi
5:35 pm55 °FOvercast.12 mph82%29.95 "Hg10 mi
5:15 pm57 °FOvercast.12 mph82%29.94 "Hg10 mi
4:56 pm57 °FLight rain. Mostly cloudy.10 mph95%29.93 "Hg10 mi
4:41 pm57 °FRain. Fog.16 mph100%29.91 "Hg6 mi
4:35 pm59 °FRain. Fog.14 mph100%29.91 "Hg5 mi
4:06 pm59 °FLight rain. Cloudy.7 mph100%29.91 "Hg8 mi
3:56 pm60 °FLight rain. Mostly cloudy.6 mph97%29.90 "Hg8 mi
3:34 pm61 °FDrizzle. Low clouds.7 mph94%29.89 "Hg4 mi
3:14 pm61 °FLight rain. Low clouds.8 mph94%29.88 "Hg7 mi
2:56 pm61 °FDrizzle. Mostly cloudy.8 mph93%29.87 "Hg8 mi
2:26 pm61 °FOvercast.13 mph94%29.85 "Hg10 mi
2:16 pm61 °FMostly cloudy.13 mph100%29.85 "Hg10 mi
2:09 pm61 °FMostly cloudy.12 mph100%29.85 "Hg10 mi
1:56 pm61 °FDrizzle. Low clouds.16 mph94%29.85 "Hg7 mi
1:29 pm63 °FLight rain. More clouds than sun.12 mph88%29.85 "Hg4 mi
1:09 pm63 °FLight rain. Low clouds.15 mph83%29.84 "Hg9 mi
1:04 pm64 °FDrizzle. Overcast.15 mph78%29.84 "Hg10 mi
12:56 pm64 °FOvercast.14 mph81%29.84 "Hg10 mi
12:02 pm63 °FMostly cloudy.16 mph88%29.83 "Hg10 mi
11:56 am62 °FLight rain. Mostly cloudy.14 mph88%29.83 "Hg10 mi
11:36 am63 °FLight rain. Mostly cloudy.16 mph88%29.85 "Hg10 mi
11:16 am63 °FLight rain. Broken clouds.17 mph83%29.84 "Hg10 mi
10:56 am62 °FLight rain. Partly sunny.18 mph82%29.84 "Hg10 mi
10:37 am63 °FDrizzle. Partly sunny.22 mph83%29.84 "Hg10 mi
9:56 am63 °FOvercast.18 mph81%29.86 "Hg10 mi
9:35 am63 °FPartly sunny.22 mph83%29.85 "Hg10 mi
Weather by CustomWeather, © 2019

See weather overview

Advertising